Regional Weather Roundup
Issued by NWS Jackson, KY

Home | Current Version | Previous Version | Text Only | Print | Product List | Glossary Off
Versions: 1 2 3 4 5 6 7 8 9 10 11 12 13 14 15 16 17 18 19 20 21 22 23 24 25 26 27 28 29 30 31 32 33 34 35 36 37 38 39 40 41 42 43 44 45 46 47 48 49 50

000
ASUS43 KJKL 310705
RWRJKL

EAST KENTUCKY HOURLY WEATHER ROUNDUP
NATIONAL WEATHER SERVICE JACKSON KY
300 AM EDT THU JUL 31 2014

NOTE: "FAIR" INDICATES FEW OR NO CLOUDS BELOW 12,000 FEET WITH
NO SIGNIFICANT WEATHER AND/OR OBSTRUCTIONS TO VISIBILITY.

* THESE REPORTS ARE NOT UNDER NWS QUALITY CONTROL AND MAY NOT
  REPORT WEATHER SUCH AS PRECIPITATION AND FOG.

KYZ079-080-083-085-087-088-110-112-115-119-120-310800
...EASTERN KENTUCKY...

CITY           SKY/WX    TMP DP  RH WIND       PRES   REMARKS
JACKSON        PTCLDY    61  58  90 E3        30.12S
LONDON         PTCLDY    61  58  90 CALM      30.12S
SOMERSET*      PTCLDY    59  59 100 CALM      30.12S
MONTICELLO*    PTCLDY    59  59 100 CALM      30.13R FOG
WILLIAMSBURG*    N/A     59  59 100 CALM      30.12S
MIDDLESBORO*   MOCLDY    58  57  97 CALM      30.14S
HARLAN APT*    CLOUDY    59  57  94 MISG      30.15S VSB 1/4
BLACK MTN*       N/A     55  54  94 N1          N/A
PIKEVILLE APT* CLEAR     59  57  94 SE5       30.12F
BIG SANDY*     SUNNY     61  57  88 CALM      30.12S
MOREHEAD APT*    N/A     59  57  94 S5        30.12S
$$

KYZ035-036-041-042-044-050-067-078-099-310800
...CENTRAL KENTUCKY...

CITY           SKY/WX    TMP DP  RH WIND       PRES   REMARKS
MT STERLING*   PTCLDY    57  55  94 CALM      30.12S
FLEMING/MASON* CLEAR     60  57  90 S5        30.10S
DANVILLE*      CLOUDY    61  57  88 CALM      30.12R
RICHMOND*      PTCLDY    61  57  88 CALM      30.10S
LEXINGTON      PTCLDY    62  57  83 S3        30.10S
FRANKFORT      CLEAR     59  57  93 CALM      30.08S
$$

KYZ091>093-OHZ055-061-077-WVZ005-015-034-035-042-310800
...SOUTHERN OHIO/WEST VIRGINIA...

CITY           SKY/WX    TMP DP  RH WIND       PRES   REMARKS
COVINGTON      CLOUDY    66  61  84 CALM      30.07S
COLUMBUS       CLOUDY    65  59  81 CALM      30.05S
DAYTON         PTCLDY    63  58  83 CALM      30.06F
WILMINGTON     PTCLDY    61  58  90 CALM      30.08R
HUNTINGTON     CLEAR     59  58  96 CALM      30.09S
CHARLESTON     CLOUDY    62  62 100 CALM      30.09S
PINEVILLE*     PTCLDY    57  57 100 MISG      30.20S FOG
BECKLEY        CLOUDY    57  54  89 CALM      30.17S
BLUEFIELD      PTCLDY    60  52  74 W3        30.19S
$$

VAZ002-007-008-TNZ017-027-036-066-071-310800
...SOUTHWEST VIRGINIA/EAST TENNESSEE...

CITY           SKY/WX    TMP DP  RH WIND       PRES   REMARKS
WISE*          PTCLDY    59  55  88 CALM      30.18S
JONESVILLE*      N/A     55  55 100 CALM      30.15F
ABINGDON*      PTCLDY    60  56  88 CALM      30.16S
BRISTOL        MOCLDY    57  55  93 CALM      30.14R FOG
KNOXVILLE      CLOUDY    61  59  93 CALM      30.09S
OAK RIDGE      CLOUDY    63  60  90 CALM      30.11F
CROSSVILLE     CLOUDY    64  57  78 CALM      30.14S
NASHVILLE      MOCLDY    64  60  87 CALM      30.10R
$$

...KEY TO REMARKS...
VSB - VISIBILITY IN MILES
WCI - WIND CHILL INDEX
HX  - HEAT INDEX

$$


USA.gov is the U.S. government's official web portal to all federal, state and local government web resources and services.